Powrót do katalogu

STARLINK-31390

AktywnyŁącznośćVLEO
NORAD 58937·PAYLOAD·🇺🇸 United States

Wystrzelony Feb 10, 2024 z Vandenberg Space Force Base

Loading…

Następne Przeloty (najbliższe 24 godziny)

TLE

ŚwieżeSource: CelesTrak SupGP

Epoka: Sep 15, 2026, 03:14 UTC

1 58937C 24027G   26258.13520833  .00026230  00000+0  77509-3 0  2586
2 58937  53.1570 148.7784 0001247  85.1374 355.0319 15.34372191    19

Śledź STARLINK-31390 w czasie rzeczywistym z AllMySat

Download on the App Store